| time (UTC) | temp C | wind direction | speed KPH | gust KPH | rain 1hr cm | rain 24hr cm | rain mn cm | humidity % | barometer mb |
| 20260505035323 | 19 | 219 | 0.0 | 0.0 | 0.00 | 0.00 | 0.00 | 61 | 1009.6 |
| 20260505034821 | 19 | 339 | 1.6 | 1.6 | 0.00 | 0.00 | 0.00 | 61 | 1009.9 |
| 20260505034317 | 19 | 231 | 0.0 | 1.6 | 0.00 | 0.00 | 0.00 | 63 | 1009.6 |
| 20260505033814 | 19 | 176 | 0.0 | 0.0 | 0.00 | 0.00 | 0.00 | 61 | 1009.6 |
| 20260505033311 | 20 | 175 | 0.0 | 0.0 | 0.00 | 0.00 | 0.00 | 62 | 1009.6 |
| 20260505032810 | 20 | 175 | 0.0 | 0.0 | 0.00 | 0.00 | 0.00 | 61 | 1009.6 |
| 20260505032305 | 20 | 175 | 0.0 | 0.0 | 0.00 | 0.00 | 0.00 | 59 | 1009.6 |
| 20260505031803 | 21 | 174 | 0.0 | 0.0 | 0.00 | 0.00 | 0.00 | 57 | 1009.6 |
| 20260505031259 | 21 | 156 | 0.0 | 0.0 | 0.00 | 0.00 | 0.00 | 55 | 1009.6 |
| 20260505030756 | 22 | 176 | 1.6 | 1.6 | 0.00 | 0.00 | 0.00 | 53 | 1009.2 |
| 20260505030252 | 23 | 185 | 1.6 | 1.6 | 0.00 | 0.00 | 0.00 | 48 | 1009.2 |
| 20260505025747 | 23 | 222 | 1.6 | 1.6 | 0.00 | 0.00 | 0.00 | 47 | 1009.2 |
| 20260505025246 | 23 | 230 | 1.6 | 1.6 | 0.00 | 0.00 | 0.00 | 47 | 1009.2 |
| 20260505024744 | 24 | 227 | 0.0 | 1.6 | 0.00 | 0.00 | 0.00 | 46 | 1009.2 |
| 20260505024241 | 24 | 232 | 3.2 | 3.2 | 0.00 | 0.00 | 0.00 | 45 | 1008.9 |
| 20260505023738 | 24 | 224 | 0.0 | 0.0 | 0.00 | 0.00 | 0.00 | 45 | 1008.9 |
| 20260505023235 | 25 | 210 | 1.6 | 1.6 | 0.00 | 0.00 | 0.00 | 44 | 1008.9 |
| 20260505022732 | 25 | 213 | 1.6 | 1.6 | 0.00 | 0.00 | 0.00 | 43 | 1008.9 |
| 20260505022229 | 26 | 226 | 3.2 | 3.2 | 0.00 | 0.00 | 0.00 | 42 | 1008.9 |
| 20260505021726 | 26 | 236 | 1.6 | 3.2 | 0.00 | 0.00 | 0.00 | 41 | 1009.2 |
| 20260505021223 | 25 | 219 | 1.6 | 1.6 | 0.00 | 0.00 | 0.00 | 42 | 1008.9 |
| 20260505020719 | 26 | 219 | 1.6 | 1.6 | 0.00 | 0.00 | 0.00 | 41 | 1008.5 |
| 20260505020214 | 26 | 227 | 1.6 | 1.6 | 0.00 | 0.00 | 0.00 | 41 | 1008.9 |
| 20260505015712 | 25 | 299 | 3.2 | 3.2 | 0.00 | 0.00 | 0.00 | 41 | 1008.9 |
| 20260505015209 | 25 | 245 | 3.2 | 4.8 | 0.00 | 0.00 | 0.00 | 40 | 1008.9 |
| 20260505014705 | 26 | 252 | 6.4 | 9.7 | 0.00 | 0.00 | 0.00 | 39 | 1008.9 |
| 20260505014203 | 26 | 215 | 3.2 | 3.2 | 0.00 | 0.00 | 0.00 | 40 | 1008.9 |
| 20260505013700 | 26 | 247 | 1.6 | 1.6 | 0.00 | 0.00 | 0.00 | 39 | 1009.2 |
| 20260505013157 | 26 | 216 | 3.2 | 3.2 | 0.00 | 0.00 | 0.00 | 39 | 1009.2 |
| 20260505012655 | 26 | 207 | 3.2 | 3.2 | 0.00 | 0.00 | 0.00 | 39 | 1008.9 |
| 20260505012152 | 26 | 197 | 4.8 | 4.8 | 0.00 | 0.00 | 0.00 | 39 | 1008.9 |
| 20260505011653 | 26 | 225 | 0.0 | 0.0 | 0.00 | 0.00 | 0.00 | 37 | 1009.2 |
| 20260505011150 | 26 | 252 | 4.8 | 4.8 | 0.00 | 0.00 | 0.00 | 38 | 1009.2 |
| 20260505010645 | 26 | 233 | 1.6 | 3.2 | 0.00 | 0.00 | 0.00 | 38 | 1009.2 |
| 20260505010142 | 26 | 256 | 3.2 | 9.7 | 0.00 | 0.00 | 0.00 | 38 | 1008.9 |
| 20260505005638 | 26 | 234 | 1.6 | 1.6 | 0.00 | 0.00 | 0.00 | 38 | 1009.2 |
| 20260505005135 | 26 | 256 | 4.8 | 4.8 | 0.00 | 0.00 | 0.00 | 36 | 1009.2 |
| 20260505004632 | 26 | 328 | 1.6 | 4.8 | 0.00 | 0.00 | 0.00 | 37 | 1009.2 |
| 20260505004129 | 26 | 354 | 6.4 | 6.4 | 0.00 | 0.00 | 0.00 | 37 | 1009.2 |
| 20260505003626 | 26 | 141 | 1.6 | 3.2 | 0.00 | 0.00 | 0.00 | 37 | 1009.2 |
| 20260505003124 | 26 | 225 | 6.4 | 9.7 | 0.00 | 0.00 | 0.00 | 37 | 1009.2 |
| 20260505002620 | 26 | 255 | 4.8 | 6.4 | 0.00 | 0.00 | 0.00 | 35 | 1009.2 |
| 20260505002118 | 26 | 243 | 3.2 | 4.8 | 0.00 | 0.00 | 0.00 | 35 | 1009.2 |
| 20260505001615 | 26 | 218 | 0.0 | 0.0 | 0.00 | 0.00 | 0.00 | 35 | 1009.2 |
| 20260505001113 | 26 | 257 | 1.6 | 1.6 | 0.00 | 0.00 | 0.00 | 36 | 1009.6 |
| 20260505000609 | 26 | 216 | 1.6 | 1.6 | 0.00 | 0.00 | 0.00 | 35 | 1009.2 |
| 20260505000107 | 26 | 250 | 6.4 | 6.4 | 0.00 | 0.00 | 0.00 | 36 | 1009.6 |
| 20260504235603 | 26 | 233 | 6.4 | 6.4 | 0.00 | 0.00 | 0.00 | 35 | 1009.6 |
| 20260504235100 | 26 | 234 | 6.4 | 9.7 | 0.00 | 0.00 | 0.00 | 36 | 1009.6 |
| 20260504234557 | 25 | 228 | 3.2 | 3.2 | 0.00 | 0.00 | 0.00 | 37 | 1009.6 |
| 20260504234054 | 26 | 247 | 3.2 | 4.8 | 0.00 | 0.00 | 0.00 | 35 | 1009.6 |
| 20260504233549 | 26 | 223 | 6.4 | 9.7 | 0.00 | 0.00 | 0.00 | 35 | 1009.6 |
| 20260504233046 | 26 | 184 | 4.8 | 6.4 | 0.00 | 0.00 | 0.00 | 35 | 1009.6 |
| 20260504232543 | 26 | 263 | 8.0 | 11.3 | 0.00 | 0.00 | 0.00 | 36 | 1009.6 |
| 20260504232041 | 26 | 245 | 3.2 | 3.2 | 0.00 | 0.00 | 0.00 | 35 | 1009.6 |
| 20260504231537 | 26 | 255 | 1.6 | 1.6 | 0.00 | 0.00 | 0.00 | 34 | 1009.2 |
| 20260504231033 | 26 | 239 | 4.8 | 6.4 | 0.00 | 0.00 | 0.00 | 35 | 1009.6 |
| 20260504230530 | 26 | 234 | 4.8 | 6.4 | 0.00 | 0.00 | 0.00 | 36 | 1009.6 |
| 20260504230029 | 26 | 290 | 4.8 | 6.4 | 0.00 | 0.00 | 0.00 | 36 | 1009.6 |
| 20260504225526 | 26 | 277 | 6.4 | 6.4 | 0.00 | 0.00 | 0.00 | 36 | 1009.6 |
| 20260504225023 | 26 | 220 | 1.6 | 1.6 | 0.00 | 0.00 | 0.00 | 36 | 1009.6 |
| 20260504224519 | 26 | 162 | 4.8 | 6.4 | 0.00 | 0.00 | 0.00 | 35 | 1009.6 |
| 20260504224017 | 26 | 218 | 4.8 | 4.8 | 0.00 | 0.00 | 0.00 | 37 | 1009.9 |
| 20260504223513 | 26 | 237 | 1.6 | 3.2 | 0.00 | 0.00 | 0.00 | 36 | 1009.9 |
| 20260504223009 | 26 | 239 | 12.9 | 14.5 | 0.00 | 0.00 | 0.00 | 36 | 1009.9 |
| 20260504222506 | 26 | 196 | 3.2 | 4.8 | 0.00 | 0.00 | 0.00 | 36 | 1009.9 |
| 20260504222004 | 26 | 240 | 8.0 | 9.7 | 0.00 | 0.00 | 0.00 | 35 | 1009.9 |
| 20260504221501 | 26 | 329 | 11.3 | 12.9 | 0.00 | 0.00 | 0.00 | 37 | 1009.9 |
| 20260504220958 | 26 | 239 | 4.8 | 6.4 | 0.00 | 0.00 | 0.00 | 36 | 1009.9 |
| 20260504220454 | 25 | 263 | 4.8 | 6.4 | 0.00 | 0.00 | 0.00 | 37 | 1010.2 |
| 20260504215951 | 26 | 332 | 9.7 | 11.3 | 0.00 | 0.00 | 0.00 | 36 | 1010.2 |
| 20260504215447 | 25 | 247 | 3.2 | 4.8 | 0.00 | 0.00 | 0.00 | 35 | 1010.6 |
| 20260504214944 | 26 | 351 | 6.4 | 6.4 | 0.00 | 0.00 | 0.00 | 34 | 1010.2 |
| 20260504214441 | 26 | 257 | 6.4 | 6.4 | 0.00 | 0.00 | 0.00 | 33 | 1010.2 |
| 20260504213937 | 26 | 260 | 6.4 | 9.7 | 0.00 | 0.00 | 0.00 | 34 | 1010.2 |
| 20260504213433 | 26 | 256 | 8.0 | 11.3 | 0.00 | 0.00 | 0.00 | 32 | 1010.2 |
| 20260504212931 | 26 | 293 | 8.0 | 11.3 | 0.00 | 0.00 | 0.00 | 36 | 1010.2 |
| 20260504212426 | 26 | 236 | 4.8 | 6.4 | 0.00 | 0.00 | 0.00 | 36 | 1010.2 |
| 20260504211925 | 26 | 245 | 14.5 | 14.5 | 0.00 | 0.00 | 0.00 | 35 | 1010.2 |
| 20260504211420 | 26 | 259 | 4.8 | 6.4 | 0.00 | 0.00 | 0.00 | 36 | 1010.2 |
| 20260504210918 | 26 | 332 | 4.8 | 6.4 | 0.00 | 0.00 | 0.00 | 38 | 1010.2 |
| 20260504210415 | 26 | 305 | 3.2 | 3.2 | 0.00 | 0.00 | 0.00 | 37 | 1010.2 |
| 20260504205912 | 25 | 36 | 6.4 | 6.4 | 0.00 | 0.00 | 0.00 | 38 | 1010.2 |
| 20260504205410 | 26 | 351 | 9.7 | 14.5 | 0.00 | 0.00 | 0.00 | 36 | 1010.2 |
| 20260504204908 | 26 | 190 | 3.2 | 3.2 | 0.00 | 0.00 | 0.00 | 38 | 1010.2 |
| 20260504204406 | 26 | 340 | 3.2 | 3.2 | 0.00 | 0.00 | 0.00 | 37 | 1010.2 |
| 20260504203905 | 25 | 104 | 1.6 | 3.2 | 0.00 | 0.00 | 0.00 | 39 | 1010.6 |
| 20260504203402 | 26 | 268 | 3.2 | 6.4 | 0.00 | 0.00 | 0.00 | 37 | 1010.6 |
| 20260504202857 | 25 | 238 | 3.2 | 3.2 | 0.00 | 0.00 | 0.00 | 37 | 1010.2 |
| 20260504202354 | 25 | 341 | 4.8 | 9.7 | 0.00 | 0.00 | 0.00 | 37 | 1010.6 |
| 20260504201851 | 25 | 277 | 4.8 | 6.4 | 0.00 | 0.00 | 0.00 | 37 | 1010.2 |
| 20260504201349 | 25 | 349 | 3.2 | 4.8 | 0.00 | 0.00 | 0.00 | 38 | 1010.6 |
| 20260504200846 | 25 | 311 | 3.2 | 4.8 | 0.00 | 0.00 | 0.00 | 37 | 1010.2 |
| 20260504200342 | 25 | 248 | 11.3 | 12.9 | 0.00 | 0.00 | 0.00 | 36 | 1010.6 |
| 20260504195839 | 25 | 206 | 1.6 | 3.2 | 0.00 | 0.00 | 0.00 | 38 | 1010.6 |
| 20260504195334 | 25 | 189 | 3.2 | 4.8 | 0.00 | 0.00 | 0.00 | 40 | 1010.6 |
| 20260504194832 | 25 | 1 | 8.0 | 11.3 | 0.00 | 0.00 | 0.00 | 38 | 1010.6 |
| 20260504194327 | 24 | 316 | 6.4 | 9.7 | 0.00 | 0.00 | 0.00 | 40 | 1010.6 |
| 20260504193823 | 25 | 204 | 4.8 | 6.4 | 0.00 | 0.00 | 0.00 | 39 | 1010.6 |
| 20260504193321 | 25 | 241 | 3.2 | 3.2 | 0.00 | 0.00 | 0.00 | 40 | 1010.2 |
| 20260504192820 | 25 | 260 | 4.8 | 12.9 | 0.00 | 0.00 | 0.00 | 41 | 1010.6 |
| 20260504192317 | 25 | 222 | 4.8 | 4.8 | 0.00 | 0.00 | 0.00 | 40 | 1010.6 |
| 20260504191816 | 24 | 215 | 1.6 | 1.6 | 0.00 | 0.00 | 0.00 | 41 | 1010.6 |
| 20260504191313 | 25 | 233 | 11.3 | 14.5 | 0.00 | 0.00 | 0.00 | 40 | 1010.6 |
| 20260504190808 | 25 | 246 | 4.8 | 4.8 | 0.00 | 0.00 | 0.00 | 40 | 1010.6 |
| 20260504190304 | 24 | 236 | 3.2 | 3.2 | 0.00 | 0.00 | 0.00 | 40 | 1010.6 |
| 20260504185801 | 24 | 281 | 4.8 | 4.8 | 0.00 | 0.00 | 0.00 | 42 | 1010.9 |
| 20260504185258 | 23 | 22 | 4.8 | 4.8 | 0.00 | 0.00 | 0.00 | 43 | 1010.6 |
| 20260504184754 | 24 | 343 | 8.0 | 9.7 | 0.00 | 0.00 | 0.00 | 42 | 1010.9 |
| 20260504184250 | 23 | 289 | 8.0 | 9.7 | 0.00 | 0.00 | 0.00 | 42 | 1010.9 |
| 20260504183746 | 23 | 13 | 3.2 | 4.8 | 0.00 | 0.00 | 0.00 | 43 | 1010.9 |
| 20260504183243 | 23 | 168 | 6.4 | 6.4 | 0.00 | 0.00 | 0.00 | 42 | 1010.6 |
| 20260504182741 | 23 | 256 | 1.6 | 1.6 | 0.00 | 0.00 | 0.00 | 43 | 1011.3 |
| 20260504182238 | 23 | 308 | 9.7 | 11.3 | 0.00 | 0.00 | 0.00 | 43 | 1010.9 |
| 20260504181736 | 23 | 180 | 0.0 | 0.0 | 0.00 | 0.00 | 0.00 | 47 | 1010.9 |
| 20260504181233 | 23 | 34 | 3.2 | 3.2 | 0.00 | 0.00 | 0.00 | 45 | 1010.6 |
| 20260504180732 | 23 | 220 | 3.2 | 3.2 | 0.00 | 0.00 | 0.00 | 46 | 1010.9 |
| 20260504180231 | 23 | 188 | 0.0 | 1.6 | 0.00 | 0.00 | 0.00 | 42 | 1010.9 |
| 20260504175728 | 23 | 279 | 4.8 | 6.4 | 0.00 | 0.00 | 0.00 | 44 | 1010.9 |
| 20260504175224 | 23 | 274 | 4.8 | 4.8 | 0.00 | 0.00 | 0.00 | 46 | 1010.9 |
| 20260504174722 | 22 | 158 | 6.4 | 6.4 | 0.00 | 0.00 | 0.00 | 49 | 1010.9 |
| 20260504174220 | 22 | 235 | 3.2 | 3.2 | 0.00 | 0.00 | 0.00 | 49 | 1010.9 |
| 20260504173716 | 22 | 257 | 3.2 | 3.2 | 0.00 | 0.00 | 0.00 | 51 | 1010.9 |
| 20260504173213 | 22 | 323 | 4.8 | 4.8 | 0.00 | 0.00 | 0.00 | 49 | 1010.9 |
| 20260504172709 | 22 | 241 | 1.6 | 1.6 | 0.00 | 0.00 | 0.00 | 48 | 1010.9 |
| 20260504172206 | 21 | 212 | 3.2 | 4.8 | 0.00 | 0.00 | 0.00 | 50 | 1010.9 |
| 20260504171702 | 21 | 181 | 1.6 | 3.2 | 0.00 | 0.00 | 0.00 | 50 | 1010.9 |
| 20260504171200 | 21 | 17 | 3.2 | 4.8 | 0.00 | 0.00 | 0.00 | 52 | 1010.6 |
| 20260504170656 | 21 | 265 | 3.2 | 4.8 | 0.00 | 0.00 | 0.00 | 50 | 1010.6 |
| 20260504170154 | 21 | 230 | 3.2 | 3.2 | 0.00 | 0.00 | 0.00 | 50 | 1010.9 |
| 20260504160112 | 18 | 237 | 3.2 | 4.8 | 0.00 | 0.00 | 0.00 | 57 | 1010.6 |
| 20260504151039 | 14 | 181 | 0.0 | 0.0 | 0.00 | 0.00 | 0.00 | 83 | 1010.2 |
| 20260504150536 | 15 | 184 | 0.0 | 0.0 | 0.00 | 0.00 | 0.00 | 84 | 1010.2 |
| 20260504141002 | 12 | 192 | 0.0 | 0.0 | 0.00 | 0.00 | 0.00 | 85 | 1009.9 |
| 20260504140459 | 12 | 192 | 0.0 | 1.6 | 0.00 | 0.00 | 0.00 | 85 | 1009.9 |
| 20260504130424 | 11 | 205 | 0.0 | 0.0 | 0.00 | 0.00 | 0.00 | 88 | 1009.6 |
| 20260504110310 | 12 | 188 | 1.6 | 1.6 | 0.00 | 0.00 | 0.00 | 87 | 1009.6 |
| 20260504100228 | 13 | 192 | 0.0 | 0.0 | 0.00 | 0.00 | 0.00 | 86 | 1009.2 |
| 20260504081622 | 14 | 198 | 0.0 | 0.0 | 0.00 | 0.00 | 0.00 | 81 | 1009.2 |
| 20260504081117 | 14 | 198 | 1.6 | 1.6 | 0.00 | 0.00 | 0.00 | 82 | 1009.2 |
| 20260504080614 | 14 | 198 | 0.0 | 0.0 | 0.00 | 0.00 | 0.00 | 82 | 1009.6 |
| 20260504080111 | 14 | 198 | 0.0 | 0.0 | 0.00 | 0.00 | 0.00 | 81 | 1009.6 |
| 20260504050427 | 17 | 201 | 1.6 | 1.6 | 0.00 | 0.00 | 0.00 | 62 | 1009.6 |
| 20260504045924 | 18 | 193 | 0.0 | 0.0 | 0.00 | 0.00 | 0.00 | 61 | 1009.6 |
| 20260504045420 | 18 | 193 | 0.0 | 0.0 | 0.00 | 0.00 | 0.00 | 59 | 1009.6 |
| 20260504044916 | 18 | 215 | 0.0 | 0.0 | 0.00 | 0.00 | 0.00 | 55 | 1009.6 |
| 20260504044414 | 18 | 204 | 0.0 | 0.0 | 0.00 | 0.00 | 0.00 | 58 | 1009.6 |
| 20260504043911 | 18 | 193 | 0.0 | 0.0 | 0.00 | 0.00 | 0.00 | 54 | 1009.6 |
| 20260504043408 | 18 | 193 | 0.0 | 0.0 | 0.00 | 0.00 | 0.00 | 55 | 1009.6 |
| 20260504042905 | 19 | 192 | 0.0 | 0.0 | 0.00 | 0.00 | 0.00 | 55 | 1009.6 |
| 20260504042402 | 19 | 223 | 0.0 | 0.0 | 0.00 | 0.00 | 0.00 | 54 | 1009.6 |
| 20260504041858 | 19 | 222 | 0.0 | 0.0 | 0.00 | 0.00 | 0.00 | 54 | 1009.2 |
| 20260504041354 | 19 | 228 | 0.0 | 0.0 | 0.00 | 0.00 | 0.00 | 57 | 1009.2 |
| 20260504040850 | 19 | 196 | 0.0 | 0.0 | 0.00 | 0.00 | 0.00 | 57 | 1009.6 |
| 20260504040348 | 20 | 196 | 0.0 | 0.0 | 0.00 | 0.00 | 0.00 | 55 | 1009.2 |
| 20260504035844 | 20 | 196 | 1.6 | 1.6 | 0.00 | 0.00 | 0.00 | 57 | 1009.2 |